PAY1256 KMEM-KOMA

Flight info

Callsign PAY1256
Flight time 1h 43m
Altitude 16000
Route HOTRD5 HOTRD WEVEM BOCTA
Aircraft L188/M-SDE2E3FGRY/H

Departure

Time 2026-05-04 19:48
Airport Memphis International Airport (KMEM)

Arrival

Time 2026-05-04 21:32
Airport Eppley Airfield (KOMA)
Time Latitude Longitude Altitude Speed Heading
2026-05-04 19:45 35.05423 -89.97616 271 ft 0 kts 179°
2026-05-04 19:46 35.05408 -89.97613 272 ft 15 kts 153°
2026-05-04 19:47 35.05399 -89.97586 272 ft 2 kts 62°
2026-05-04 19:47 35.05432 -89.97569 272 ft 8 kts 306°
2026-05-04 19:47 35.05423 -89.97611 271 ft 3 kts 204°
2026-05-04 19:47 35.05206 -89.97612 278 ft 80 kts 179°
2026-05-04 19:48 35.04384 -89.97598 295 ft 150 kts 178°
2026-05-04 19:48 35.03227 -89.97536 462 ft 180 kts 180°
2026-05-04 19:48 35.01875 -89.97398 774 ft 206 kts 175°
2026-05-04 19:48 35.00351 -89.97238 1175 ft 223 kts 178°
2026-05-04 19:49 34.98847 -89.97672 1561 ft 231 kts 214°
2026-05-04 19:49 34.97477 -89.98778 1963 ft 242 kts 213°
2026-05-04 19:49 34.96033 -89.99863 2579 ft 241 kts 212°
2026-05-04 19:49 34.94709 -90.01035 3292 ft 235 kts 233°
2026-05-04 19:50 34.94201 -90.02879 3871 ft 236 kts 267°
2026-05-04 19:50 34.94169 -90.04877 4422 ft 238 kts 269°
2026-05-04 19:50 34.94162 -90.06876 4983 ft 238 kts 270°
2026-05-04 19:50 34.94159 -90.08910 5530 ft 239 kts 270°
2026-05-04 19:51 34.94271 -90.10904 6035 ft 239 kts 289°
2026-05-04 19:51 34.94973 -90.12725 6550 ft 239 kts 295°
2026-05-04 19:51 34.95702 -90.14542 7013 ft 241 kts 296°
2026-05-04 19:51 34.96446 -90.16394 7512 ft 242 kts 297°
2026-05-04 19:52 34.97194 -90.18255 7967 ft 243 kts 297°
2026-05-04 19:52 34.98186 -90.19893 8303 ft 247 kts 325°
2026-05-04 19:52 34.99720 -90.20806 8762 ft 247 kts 334°
2026-05-04 19:52 35.01307 -90.21664 9192 ft 248 kts 335°
2026-05-04 19:53 35.02890 -90.22508 9589 ft 250 kts 335°
2026-05-04 19:53 35.04476 -90.23349 9987 ft 251 kts 336°
2026-05-04 19:53 35.06093 -90.24209 10367 ft 252 kts 336°
2026-05-04 19:53 35.07702 -90.25063 10727 ft 254 kts 336°
2026-05-04 19:54 35.09316 -90.25920 11093 ft 255 kts 336°
2026-05-04 19:54 35.10966 -90.26797 11446 ft 256 kts 336°
2026-05-04 19:54 35.12597 -90.27663 11793 ft 257 kts 336°
2026-05-04 19:54 35.14244 -90.28541 12130 ft 258 kts 336°
2026-05-04 19:55 35.15881 -90.29411 12472 ft 258 kts 336°
2026-05-04 19:55 35.17525 -90.30287 12748 ft 261 kts 336°
2026-05-04 19:55 35.19201 -90.31180 13067 ft 261 kts 336°
2026-05-04 19:55 35.20858 -90.32063 13384 ft 261 kts 336°
2026-05-04 19:56 35.22545 -90.32962 13649 ft 263 kts 336°
2026-05-04 19:56 35.24209 -90.33849 13931 ft 264 kts 336°
2026-05-04 19:56 35.25908 -90.34756 14228 ft 264 kts 336°
2026-05-04 19:56 35.27586 -90.35653 14479 ft 265 kts 336°
2026-05-04 19:57 35.29270 -90.36552 14745 ft 266 kts 336°
2026-05-04 19:57 35.30982 -90.37466 15001 ft 266 kts 336°
2026-05-04 19:57 35.32677 -90.38374 15223 ft 268 kts 336°
2026-05-04 19:57 35.34375 -90.39282 15485 ft 267 kts 336°
2026-05-04 19:58 35.36097 -90.40202 15717 ft 268 kts 336°
2026-05-04 19:58 35.37802 -90.41115 15898 ft 270 kts 336°
2026-05-04 19:58 35.39563 -90.42060 15927 ft 278 kts 336°
2026-05-04 19:58 35.41349 -90.43017 15933 ft 285 kts 336°
2026-05-04 19:59 35.43179 -90.43997 15932 ft 291 kts 336°
2026-05-04 19:59 35.45068 -90.45010 15925 ft 297 kts 336°
2026-05-04 19:59 35.46969 -90.46030 15926 ft 302 kts 336°
2026-05-04 19:59 35.48909 -90.47122 15914 ft 305 kts 328°
2026-05-04 20:00 35.50545 -90.48749 15933 ft 303 kts 321°
2026-05-04 20:00 35.52153 -90.50407 15924 ft 303 kts 321°
2026-05-04 20:00 35.53777 -90.52087 15921 ft 303 kts 321°
2026-05-04 20:00 35.55380 -90.53752 15926 ft 303 kts 320°
2026-05-04 20:01 35.57027 -90.55341 15921 ft 302 kts 327°
2026-05-04 20:01 35.58782 -90.56799 15920 ft 302 kts 326°
2026-05-04 20:01 35.60508 -90.58238 15919 ft 302 kts 326°
2026-05-04 20:01 35.62233 -90.59681 15921 ft 301 kts 326°
2026-05-04 20:02 35.63968 -90.61130 15917 ft 301 kts 326°
2026-05-04 20:02 35.65713 -90.62591 15923 ft 301 kts 326°
2026-05-04 20:02 35.67432 -90.64030 15925 ft 301 kts 326°
2026-05-04 20:02 35.69176 -90.65492 15922 ft 300 kts 326°
2026-05-04 20:03 35.70899 -90.66936 15929 ft 300 kts 325°
2026-05-04 20:03 35.72618 -90.68377 15921 ft 300 kts 325°
2026-05-04 20:03 35.74339 -90.69820 15929 ft 300 kts 325°
2026-05-04 20:03 35.76062 -90.71268 15928 ft 300 kts 325°
2026-05-04 20:04 35.77800 -90.72727 15920 ft 300 kts 325°
2026-05-04 20:04 35.79514 -90.74168 15920 ft 300 kts 326°
2026-05-04 20:04 35.81252 -90.75628 15922 ft 300 kts 325°
2026-05-04 20:04 35.82968 -90.77071 15932 ft 300 kts 325°
2026-05-04 20:05 35.84683 -90.78516 15921 ft 300 kts 325°
2026-05-04 20:05 35.86419 -90.79977 15921 ft 300 kts 325°
2026-05-04 20:05 35.88133 -90.81422 15923 ft 300 kts 325°
2026-05-04 20:05 35.89854 -90.82873 15915 ft 301 kts 325°
2026-05-04 20:06 35.91581 -90.84328 15902 ft 301 kts 325°
2026-05-04 20:06 35.93322 -90.85800 15906 ft 301 kts 325°
2026-05-04 20:06 35.95039 -90.87249 15915 ft 300 kts 325°
2026-05-04 20:06 35.96759 -90.88702 15909 ft 300 kts 325°
2026-05-04 20:07 35.98473 -90.90153 15905 ft 300 kts 325°
2026-05-04 20:07 36.00214 -90.91625 15906 ft 300 kts 325°
2026-05-04 20:07 36.01928 -90.93074 15905 ft 300 kts 325°
2026-05-04 20:07 36.03638 -90.94522 15905 ft 299 kts 325°
2026-05-04 20:08 36.05367 -90.95986 15907 ft 299 kts 325°
2026-05-04 20:08 36.07084 -90.97442 15909 ft 299 kts 325°
2026-05-04 20:08 36.08794 -90.98891 15911 ft 299 kts 325°
2026-05-04 20:08 36.10502 -91.00341 15907 ft 299 kts 325°
2026-05-04 20:09 36.12219 -91.01798 15909 ft 299 kts 324°
2026-05-04 20:09 36.13931 -91.03256 15911 ft 299 kts 325°
2026-05-04 20:09 36.15659 -91.04724 15912 ft 300 kts 325°
2026-05-04 20:09 36.17391 -91.06197 15907 ft 300 kts 325°
2026-05-04 20:10 36.19124 -91.07671 15909 ft 300 kts 325°
2026-05-04 20:10 36.20853 -91.09141 15901 ft 300 kts 325°
2026-05-04 20:10 36.22585 -91.10617 15902 ft 300 kts 325°
2026-05-04 20:10 36.24331 -91.12106 15892 ft 300 kts 325°
2026-05-04 20:11 36.26068 -91.13588 15892 ft 300 kts 325°
2026-05-04 20:11 36.27830 -91.15091 15886 ft 300 kts 325°
2026-05-04 20:11 36.29574 -91.16578 15889 ft 300 kts 325°
2026-05-04 20:11 36.31294 -91.18047 15888 ft 300 kts 325°
2026-05-04 20:12 36.33039 -91.19539 15881 ft 300 kts 325°
2026-05-04 20:12 36.34776 -91.21026 15879 ft 300 kts 325°
2026-05-04 20:12 36.36513 -91.22510 15883 ft 300 kts 325°
2026-05-04 20:12 36.38236 -91.23985 15882 ft 300 kts 325°
2026-05-04 20:13 36.39952 -91.25455 15880 ft 299 kts 325°
2026-05-04 20:13 36.41671 -91.26929 15878 ft 299 kts 325°
2026-05-04 20:13 36.43390 -91.28401 15873 ft 299 kts 324°
2026-05-04 20:13 36.45106 -91.29874 15867 ft 299 kts 325°
2026-05-04 20:14 36.46823 -91.31349 15868 ft 299 kts 325°
2026-05-04 20:14 36.48537 -91.32820 15871 ft 299 kts 325°
2026-05-04 20:14 36.50247 -91.34290 15872 ft 299 kts 325°
2026-05-04 20:14 36.51951 -91.35756 15869 ft 299 kts 325°
2026-05-04 20:15 36.53666 -91.37230 15874 ft 299 kts 325°
2026-05-04 20:15 36.55378 -91.38703 15872 ft 299 kts 325°
2026-05-04 20:15 36.57091 -91.40179 15873 ft 299 kts 325°
2026-05-04 20:15 36.58799 -91.41650 15873 ft 298 kts 324°
2026-05-04 20:16 36.60502 -91.43118 15867 ft 298 kts 324°
2026-05-04 20:16 36.62207 -91.44589 15863 ft 298 kts 324°
2026-05-04 20:16 36.63909 -91.46059 15866 ft 298 kts 324°
2026-05-04 20:16 36.65608 -91.47527 15869 ft 298 kts 324°
2026-05-04 20:17 36.67332 -91.49015 15867 ft 298 kts 324°
2026-05-04 20:17 36.69040 -91.50493 15861 ft 298 kts 325°
2026-05-04 20:17 36.70751 -91.51971 15864 ft 298 kts 324°
2026-05-04 20:17 36.72465 -91.53455 15865 ft 298 kts 324°
2026-05-04 20:18 36.74173 -91.54935 15865 ft 298 kts 324°
2026-05-04 20:18 36.75872 -91.56406 15866 ft 298 kts 324°
2026-05-04 20:18 36.77582 -91.57890 15867 ft 298 kts 324°
2026-05-04 20:18 36.79293 -91.59373 15861 ft 298 kts 324°
2026-05-04 20:19 36.81002 -91.60857 15861 ft 298 kts 324°
2026-05-04 20:19 36.82698 -91.62328 15860 ft 297 kts 324°
2026-05-04 20:19 36.84394 -91.63802 15860 ft 297 kts 324°
2026-05-04 20:19 36.86090 -91.65276 15864 ft 297 kts 324°
2026-05-04 20:20 36.87783 -91.66750 15869 ft 297 kts 324°
2026-05-04 20:20 36.89496 -91.68239 15870 ft 297 kts 324°
2026-05-04 20:20 36.91190 -91.69716 15870 ft 297 kts 324°
2026-05-04 20:20 36.92889 -91.71196 15871 ft 297 kts 324°
2026-05-04 20:21 36.94593 -91.72683 15868 ft 297 kts 324°
2026-05-04 20:21 36.96278 -91.74152 15867 ft 297 kts 324°
2026-05-04 20:21 36.99707 -91.77145 15860 ft 298 kts 324°
2026-05-04 20:22 37.01423 -91.78643 15851 ft 298 kts 324°
2026-05-04 20:22 37.03146 -91.80150 15854 ft 298 kts 324°
2026-05-04 20:22 37.04868 -91.81655 15848 ft 298 kts 324°
2026-05-04 20:22 37.06577 -91.83149 15841 ft 298 kts 323°
2026-05-04 20:23 37.08282 -91.84644 15837 ft 298 kts 324°
2026-05-04 20:23 37.09980 -91.86132 15837 ft 298 kts 323°
2026-05-04 20:23 37.11682 -91.87624 15836 ft 298 kts 323°
2026-05-04 20:23 37.13376 -91.89110 15840 ft 298 kts 323°
2026-05-04 20:24 37.15079 -91.90604 15837 ft 298 kts 323°
2026-05-04 20:24 37.16779 -91.92096 15840 ft 297 kts 323°
2026-05-04 20:24 37.18473 -91.93586 15837 ft 298 kts 323°
2026-05-04 20:24 37.20164 -91.95072 15836 ft 297 kts 323°
2026-05-04 20:25 37.21863 -91.96566 15834 ft 297 kts 323°
2026-05-04 20:25 37.23567 -91.98065 15828 ft 297 kts 323°
2026-05-04 20:25 37.25258 -91.99555 15832 ft 297 kts 323°
2026-05-04 20:25 37.26949 -92.01045 15830 ft 297 kts 323°
2026-05-04 20:26 37.28650 -92.02543 15826 ft 297 kts 323°
2026-05-04 20:26 37.30351 -92.04044 15821 ft 297 kts 323°
2026-05-04 20:26 37.32050 -92.05544 15818 ft 297 kts 323°
2026-05-04 20:26 37.33750 -92.07046 15820 ft 297 kts 323°
2026-05-04 20:27 37.35458 -92.08553 15819 ft 297 kts 323°
2026-05-04 20:27 37.37172 -92.10068 15818 ft 297 kts 323°
2026-05-04 20:27 37.38880 -92.11579 15816 ft 297 kts 323°
2026-05-04 20:27 37.40585 -92.13088 15815 ft 297 kts 323°
2026-05-04 20:28 37.42298 -92.14606 15816 ft 297 kts 323°
2026-05-04 20:28 37.44001 -92.16114 15817 ft 297 kts 323°
2026-05-04 20:28 37.45705 -92.17625 15813 ft 297 kts 323°
2026-05-04 20:28 37.47430 -92.19154 15811 ft 297 kts 323°
2026-05-04 20:29 37.49121 -92.20657 15807 ft 296 kts 323°
2026-05-04 20:29 37.50829 -92.22172 15807 ft 296 kts 323°
2026-05-04 20:29 37.52549 -92.23701 15802 ft 296 kts 323°
2026-05-04 20:29 37.54263 -92.25227 15805 ft 296 kts 323°
2026-05-04 20:30 37.55979 -92.26751 15799 ft 296 kts 323°
2026-05-04 20:30 37.57695 -92.28280 15796 ft 296 kts 323°
2026-05-04 20:30 37.59405 -92.29803 15800 ft 295 kts 323°
2026-05-04 20:30 37.61099 -92.31312 15802 ft 295 kts 323°
2026-05-04 20:31 37.62794 -92.32823 15798 ft 295 kts 323°
2026-05-04 20:31 37.64460 -92.34309 15794 ft 295 kts 323°
2026-05-04 20:31 37.66159 -92.35827 15789 ft 295 kts 323°
2026-05-04 20:31 37.67833 -92.37321 15793 ft 294 kts 323°
2026-05-04 20:32 37.69505 -92.38815 15798 ft 294 kts 323°
2026-05-04 20:32 37.71173 -92.40307 15795 ft 294 kts 323°
2026-05-04 20:32 37.72844 -92.41803 15793 ft 294 kts 323°
2026-05-04 20:32 37.74541 -92.43320 15790 ft 294 kts 323°
2026-05-04 20:33 37.76213 -92.44817 15790 ft 294 kts 323°
2026-05-04 20:33 37.77882 -92.46314 15790 ft 294 kts 323°
2026-05-04 20:33 37.79556 -92.47817 15791 ft 294 kts 323°
2026-05-04 20:33 37.81226 -92.49315 15790 ft 294 kts 323°
2026-05-04 20:34 37.82907 -92.50821 15789 ft 294 kts 323°
2026-05-04 20:34 37.84594 -92.52337 15787 ft 294 kts 323°
2026-05-04 20:34 37.86280 -92.53852 15779 ft 294 kts 323°
2026-05-04 20:34 37.87960 -92.55363 15778 ft 293 kts 322°
2026-05-04 20:35 37.89648 -92.56883 15795 ft 293 kts 323°
2026-05-04 20:35 37.91337 -92.58402 15791 ft 293 kts 322°
2026-05-04 20:35 37.93023 -92.59921 15787 ft 293 kts 323°
2026-05-04 20:35 37.94740 -92.61469 15782 ft 292 kts 322°
2026-05-04 20:36 37.96423 -92.62988 15791 ft 292 kts 323°
2026-05-04 20:36 37.98126 -92.64524 15792 ft 292 kts 322°
2026-05-04 20:36 37.99817 -92.66054 15794 ft 292 kts 322°
2026-05-04 20:36 38.01512 -92.67584 15793 ft 292 kts 322°
2026-05-04 20:37 38.03192 -92.69100 15803 ft 293 kts 322°
2026-05-04 20:37 38.04844 -92.70595 15792 ft 293 kts 322°
2026-05-04 20:37 38.06516 -92.72108 15792 ft 294 kts 322°
2026-05-04 20:37 38.08189 -92.73624 15791 ft 294 kts 322°
2026-05-04 20:38 38.09864 -92.75140 15787 ft 294 kts 322°
2026-05-04 20:38 38.11543 -92.76662 15787 ft 295 kts 322°
2026-05-04 20:38 38.13238 -92.78198 15779 ft 295 kts 322°
2026-05-04 20:38 38.14944 -92.79764 15777 ft 295 kts 321°
2026-05-04 20:39 38.16626 -92.81323 15772 ft 295 kts 321°
2026-05-04 20:39 38.18340 -92.82913 15771 ft 295 kts 321°
2026-05-04 20:39 38.20027 -92.84477 15761 ft 295 kts 321°
2026-05-04 20:39 38.21740 -92.86066 15759 ft 295 kts 321°
2026-05-04 20:40 38.23422 -92.87627 15765 ft 295 kts 321°
2026-05-04 20:40 38.25114 -92.89201 15762 ft 294 kts 321°
2026-05-04 20:40 38.26829 -92.90798 15762 ft 294 kts 321°
2026-05-04 20:40 38.28507 -92.92360 15774 ft 294 kts 321°
2026-05-04 20:41 38.30177 -92.93914 15768 ft 295 kts 321°
2026-05-04 20:41 38.31835 -92.95460 15765 ft 295 kts 321°
2026-05-04 20:41 38.33520 -92.97029 15762 ft 295 kts 321°
2026-05-04 20:41 38.35184 -92.98582 15754 ft 295 kts 321°
2026-05-04 20:42 38.36841 -93.00130 15756 ft 295 kts 321°
2026-05-04 20:42 38.38495 -93.01672 15756 ft 295 kts 321°
2026-05-04 20:42 38.40150 -93.03219 15753 ft 295 kts 321°
2026-05-04 20:42 38.41803 -93.04765 15751 ft 294 kts 321°
2026-05-04 20:43 38.43446 -93.06303 15749 ft 294 kts 321°
2026-05-04 20:43 38.45110 -93.07859 15749 ft 294 kts 321°
2026-05-04 20:43 38.46743 -93.09390 15746 ft 294 kts 321°
2026-05-04 20:43 38.48404 -93.10946 15744 ft 294 kts 321°
2026-05-04 20:44 38.50043 -93.12481 15745 ft 293 kts 321°
2026-05-04 20:44 38.51679 -93.14019 15741 ft 293 kts 321°
2026-05-04 20:44 38.53314 -93.15552 15739 ft 293 kts 321°
2026-05-04 20:44 38.54972 -93.17108 15736 ft 292 kts 321°
2026-05-04 20:45 38.56604 -93.18643 15745 ft 292 kts 321°
2026-05-04 20:45 38.58232 -93.20174 15740 ft 292 kts 321°
2026-05-04 20:45 38.59857 -93.21705 15745 ft 291 kts 321°
2026-05-04 20:45 38.61501 -93.23251 15743 ft 291 kts 321°
2026-05-04 20:46 38.63122 -93.24778 15744 ft 291 kts 321°
2026-05-04 20:46 38.64751 -93.26311 15741 ft 291 kts 320°
2026-05-04 20:46 38.66396 -93.27866 15740 ft 291 kts 321°
2026-05-04 20:46 38.68019 -93.29398 15740 ft 291 kts 321°
2026-05-04 20:47 38.69638 -93.30927 15740 ft 291 kts 321°
2026-05-04 20:47 38.71266 -93.32462 15740 ft 291 kts 320°
2026-05-04 20:47 38.72890 -93.34000 15742 ft 291 kts 320°
2026-05-04 20:47 38.74534 -93.35555 15743 ft 291 kts 320°
2026-05-04 20:48 38.76154 -93.37086 15740 ft 291 kts 320°
2026-05-04 20:48 38.77774 -93.38622 15744 ft 291 kts 320°
2026-05-04 20:48 38.79396 -93.40157 15742 ft 291 kts 320°
2026-05-04 20:48 38.81041 -93.41716 15734 ft 291 kts 320°
2026-05-04 20:49 38.82664 -93.43256 15731 ft 291 kts 320°
2026-05-04 20:49 38.84290 -93.44801 15741 ft 291 kts 320°
2026-05-04 20:49 38.85930 -93.46360 15736 ft 291 kts 320°
2026-05-04 20:49 38.87552 -93.47898 15743 ft 291 kts 320°
2026-05-04 20:50 38.89173 -93.49440 15728 ft 292 kts 320°
2026-05-04 20:50 38.90801 -93.50990 15731 ft 291 kts 320°
2026-05-04 20:50 38.92439 -93.52548 15725 ft 292 kts 320°
2026-05-04 20:50 38.94063 -93.54094 15727 ft 291 kts 320°
2026-05-04 20:51 38.95680 -93.55636 15720 ft 292 kts 320°
2026-05-04 20:51 38.97319 -93.57198 15719 ft 291 kts 320°
2026-05-04 20:51 38.98938 -93.58743 15714 ft 291 kts 320°
2026-05-04 20:51 39.00561 -93.60294 15715 ft 291 kts 320°
2026-05-04 20:52 39.02179 -93.61839 15714 ft 290 kts 320°
2026-05-04 20:52 39.03804 -93.63394 15715 ft 290 kts 320°
2026-05-04 20:52 39.05414 -93.64933 15721 ft 289 kts 320°
2026-05-04 20:52 39.07028 -93.66476 15724 ft 289 kts 319°
2026-05-04 20:53 39.08658 -93.68035 15715 ft 290 kts 319°
2026-05-04 20:53 39.10269 -93.69582 15718 ft 290 kts 319°
2026-05-04 20:53 39.11877 -93.71124 15725 ft 290 kts 319°
2026-05-04 20:53 39.13503 -93.72681 15728 ft 290 kts 319°
2026-05-04 20:54 39.15118 -93.74231 15728 ft 291 kts 319°
2026-05-04 20:54 39.16730 -93.75779 15724 ft 291 kts 319°
2026-05-04 20:54 39.18368 -93.77356 15719 ft 291 kts 319°
2026-05-04 20:54 39.19987 -93.78912 15719 ft 291 kts 319°
2026-05-04 20:55 39.21599 -93.80465 15719 ft 291 kts 319°
2026-05-04 20:55 39.23221 -93.82022 15722 ft 291 kts 319°
2026-05-04 20:55 39.24842 -93.83585 15722 ft 291 kts 319°
2026-05-04 20:55 39.26484 -93.85167 15721 ft 291 kts 319°
2026-05-04 20:56 39.28101 -93.86724 15717 ft 291 kts 319°
2026-05-04 20:56 39.29715 -93.88283 15715 ft 291 kts 319°
2026-05-04 20:56 39.31331 -93.89843 15716 ft 291 kts 319°
2026-05-04 20:56 39.32953 -93.91409 15716 ft 291 kts 319°
2026-05-04 20:57 39.34571 -93.92974 15711 ft 291 kts 319°
2026-05-04 20:57 39.36209 -93.94558 15709 ft 291 kts 319°
2026-05-04 20:57 39.37820 -93.96117 15706 ft 291 kts 319°
2026-05-04 20:57 39.39432 -93.97676 15703 ft 291 kts 319°
2026-05-04 20:58 39.41059 -93.99258 15699 ft 290 kts 319°
2026-05-04 20:58 39.42662 -94.00810 15698 ft 290 kts 319°
2026-05-04 20:58 39.44290 -94.02387 15697 ft 290 kts 319°
2026-05-04 20:58 39.45896 -94.03948 15699 ft 290 kts 319°
2026-05-04 20:59 39.47503 -94.05505 15698 ft 290 kts 319°
2026-05-04 20:59 39.49110 -94.07069 15694 ft 290 kts 319°
2026-05-04 20:59 39.50716 -94.08630 15696 ft 289 kts 319°
2026-05-04 20:59 39.52340 -94.10210 15696 ft 289 kts 319°
2026-05-04 21:00 39.53944 -94.11770 15694 ft 289 kts 319°
2026-05-04 21:00 39.55541 -94.13327 15697 ft 289 kts 319°
2026-05-04 21:00 39.57142 -94.14887 15694 ft 289 kts 319°
2026-05-04 21:00 39.58745 -94.16451 15693 ft 289 kts 319°
2026-05-04 21:01 39.60364 -94.18031 15695 ft 288 kts 319°
2026-05-04 21:01 39.61963 -94.19591 15693 ft 288 kts 319°
2026-05-04 21:01 39.63561 -94.21155 15692 ft 288 kts 319°
2026-05-04 21:01 39.65157 -94.22714 15692 ft 288 kts 319°
2026-05-04 21:02 39.66752 -94.24271 15697 ft 288 kts 318°
2026-05-04 21:02 39.68368 -94.25855 15692 ft 288 kts 318°
2026-05-04 21:02 39.69958 -94.27412 15692 ft 288 kts 318°
2026-05-04 21:02 39.71554 -94.28975 15690 ft 288 kts 318°
2026-05-04 21:03 39.73145 -94.30536 15690 ft 288 kts 318°
2026-05-04 21:03 39.74757 -94.32118 15690 ft 288 kts 318°
2026-05-04 21:03 39.76349 -94.33679 15685 ft 288 kts 318°
2026-05-04 21:03 39.77937 -94.35240 15688 ft 287 kts 319°
2026-05-04 21:04 39.79543 -94.36818 15687 ft 287 kts 318°
2026-05-04 21:04 39.81127 -94.38377 15686 ft 287 kts 318°
2026-05-04 21:04 39.82716 -94.39938 15693 ft 287 kts 318°
2026-05-04 21:04 39.84322 -94.41518 15691 ft 287 kts 318°
2026-05-04 21:05 39.85910 -94.43084 15691 ft 287 kts 318°
2026-05-04 21:05 39.87493 -94.44647 15695 ft 287 kts 318°
2026-05-04 21:05 39.89073 -94.46204 15697 ft 287 kts 318°
2026-05-04 21:05 39.90676 -94.47784 15706 ft 286 kts 318°
2026-05-04 21:06 39.92256 -94.49346 15705 ft 286 kts 318°
2026-05-04 21:06 39.93835 -94.50907 15705 ft 286 kts 318°
2026-05-04 21:06 39.95432 -94.52483 15704 ft 286 kts 318°
2026-05-04 21:06 39.97011 -94.54048 15705 ft 286 kts 318°
2026-05-04 21:07 39.98584 -94.55605 15707 ft 286 kts 318°
2026-05-04 21:07 40.00182 -94.57187 15699 ft 286 kts 318°
2026-05-04 21:07 40.01755 -94.58743 15697 ft 286 kts 317°
2026-05-04 21:07 40.03346 -94.60326 15697 ft 286 kts 318°
2026-05-04 21:08 40.04917 -94.61883 15699 ft 285 kts 317°
2026-05-04 21:08 40.06491 -94.63446 15699 ft 285 kts 318°
2026-05-04 21:08 40.08082 -94.65027 15700 ft 285 kts 317°
2026-05-04 21:08 40.09651 -94.66587 15708 ft 285 kts 317°
2026-05-04 21:09 40.11247 -94.68173 15711 ft 286 kts 317°
2026-05-04 21:09 40.12822 -94.69743 15714 ft 286 kts 317°
2026-05-04 21:09 40.14400 -94.71315 15711 ft 287 kts 317°
2026-05-04 21:09 40.15983 -94.72890 15712 ft 287 kts 317°
2026-05-04 21:10 40.17585 -94.74486 15711 ft 287 kts 317°
2026-05-04 21:10 40.19167 -94.76062 15710 ft 287 kts 317°
2026-05-04 21:10 40.20752 -94.77647 15712 ft 288 kts 317°
2026-05-04 21:10 40.22355 -94.79247 15710 ft 288 kts 317°
2026-05-04 21:11 40.23939 -94.80829 15705 ft 288 kts 317°
2026-05-04 21:11 40.25517 -94.82410 15711 ft 287 kts 317°
2026-05-04 21:11 40.27120 -94.84012 15701 ft 287 kts 317°
2026-05-04 21:11 40.28698 -94.85590 15705 ft 287 kts 317°
2026-05-04 21:12 40.30278 -94.87174 15709 ft 287 kts 317°
2026-05-04 21:12 40.31872 -94.88772 15707 ft 287 kts 317°
2026-05-04 21:12 40.33445 -94.90350 15710 ft 287 kts 317°
2026-05-04 21:12 40.35041 -94.91950 15713 ft 287 kts 317°
2026-05-04 21:13 40.36615 -94.93535 15712 ft 287 kts 317°
2026-05-04 21:13 40.38192 -94.95119 15710 ft 287 kts 317°
2026-05-04 21:13 40.39797 -94.96731 15720 ft 288 kts 317°
2026-05-04 21:13 40.41375 -94.98319 15710 ft 288 kts 317°
2026-05-04 21:14 40.42960 -94.99915 15696 ft 288 kts 317°
2026-05-04 21:14 40.44558 -95.01526 15702 ft 288 kts 317°
2026-05-04 21:14 40.46138 -95.03119 15694 ft 288 kts 317°
2026-05-04 21:14 40.47738 -95.04729 15703 ft 287 kts 317°
2026-05-04 21:15 40.49318 -95.06322 15702 ft 288 kts 317°
2026-05-04 21:15 40.50897 -95.07921 15696 ft 288 kts 317°
2026-05-04 21:15 40.52478 -95.09517 15693 ft 288 kts 317°
2026-05-04 21:15 40.54079 -95.11137 15693 ft 288 kts 317°
2026-05-04 21:16 40.55660 -95.12736 15690 ft 288 kts 317°
2026-05-04 21:16 40.57235 -95.14333 15695 ft 287 kts 317°
2026-05-04 21:16 40.58834 -95.15949 15690 ft 287 kts 317°
2026-05-04 21:16 40.60406 -95.17543 15694 ft 287 kts 317°
2026-05-04 21:17 40.61981 -95.19140 15698 ft 287 kts 317°
2026-05-04 21:17 40.63571 -95.20753 15692 ft 287 kts 317°
2026-05-04 21:17 40.65144 -95.22349 15696 ft 286 kts 317°
2026-05-04 21:17 40.66711 -95.23944 15703 ft 285 kts 317°
2026-05-04 21:18 40.68280 -95.25536 15703 ft 285 kts 316°
2026-05-04 21:18 40.69843 -95.27130 15704 ft 285 kts 317°
2026-05-04 21:18 40.71409 -95.28720 15704 ft 285 kts 317°
2026-05-04 21:18 40.72995 -95.30336 15708 ft 285 kts 316°
2026-05-04 21:19 40.74558 -95.31930 15697 ft 285 kts 316°
2026-05-04 21:19 40.76136 -95.33539 15704 ft 285 kts 317°
2026-05-04 21:19 40.77703 -95.35137 15695 ft 285 kts 317°
2026-05-04 21:19 40.79256 -95.36723 15675 ft 276 kts 317°
2026-05-04 21:20 40.80728 -95.38220 15200 ft 264 kts 316°
2026-05-04 21:20 40.82162 -95.39685 14669 ft 254 kts 316°
2026-05-04 21:20 40.83523 -95.41077 14150 ft 245 kts 315°
2026-05-04 21:20 40.84839 -95.42423 13631 ft 237 kts 315°
2026-05-04 21:21 40.86122 -95.43738 13115 ft 229 kts 315°
2026-05-04 21:21 40.87348 -95.44998 12608 ft 222 kts 316°
2026-05-04 21:21 40.88540 -95.46222 12056 ft 217 kts 315°
2026-05-04 21:21 40.89720 -95.47436 11411 ft 216 kts 316°
2026-05-04 21:22 40.90896 -95.48644 10800 ft 215 kts 316°
2026-05-04 21:22 40.92066 -95.49873 10148 ft 213 kts 316°
2026-05-04 21:22 40.93205 -95.51086 9523 ft 211 kts 316°
2026-05-04 21:22 40.94335 -95.52300 8909 ft 210 kts 317°
2026-05-04 21:23 40.95456 -95.53501 8313 ft 209 kts 318°
2026-05-04 21:23 40.96582 -95.54709 7701 ft 208 kts 319°
2026-05-04 21:23 40.97694 -95.55902 7176 ft 202 kts 320°
2026-05-04 21:23 40.98787 -95.57077 6810 ft 207 kts 321°
2026-05-04 21:24 40.99925 -95.58298 6371 ft 214 kts 321°
2026-05-04 21:24 41.01078 -95.59536 5857 ft 215 kts 322°
2026-05-04 21:24 41.02251 -95.60793 5371 ft 216 kts 321°
2026-05-04 21:24 41.03408 -95.62037 4884 ft 216 kts 322°
2026-05-04 21:25 41.04573 -95.63291 4400 ft 217 kts 322°
2026-05-04 21:25 41.05735 -95.64542 3917 ft 217 kts 322°
2026-05-04 21:25 41.06905 -95.65802 3434 ft 218 kts 321°
2026-05-04 21:25 41.08077 -95.67066 2951 ft 218 kts 321°
2026-05-04 21:26 41.09256 -95.68335 2456 ft 213 kts 321°
2026-05-04 21:26 41.10377 -95.69544 1956 ft 205 kts 320°
2026-05-04 21:26 41.11400 -95.70650 1923 ft 178 kts 320°
2026-05-04 21:26 41.12289 -95.71615 2084 ft 167 kts 321°
2026-05-04 21:27 41.13233 -95.72634 2282 ft 179 kts 321°
2026-05-04 21:27 41.14208 -95.73689 2624 ft 176 kts 321°
2026-05-04 21:27 41.15124 -95.74679 2697 ft 168 kts 321°
2026-05-04 21:27 41.16021 -95.75647 2700 ft 162 kts 321°
2026-05-04 21:28 41.16869 -95.76566 2703 ft 152 kts 321°
2026-05-04 21:28 41.17664 -95.77442 2750 ft 141 kts 316°
2026-05-04 21:28 41.18411 -95.78275 2848 ft 139 kts 322°
2026-05-04 21:28 41.19178 -95.79054 2910 ft 139 kts 323°
2026-05-04 21:29 41.19978 -95.79835 2885 ft 145 kts 324°
2026-05-04 21:29 41.20820 -95.80637 2806 ft 152 kts 324°
2026-05-04 21:29 41.21693 -95.81464 2670 ft 152 kts 324°
2026-05-04 21:29 41.22531 -95.82253 2507 ft 140 kts 324°
2026-05-04 21:30 41.23287 -95.82965 2340 ft 126 kts 324°
2026-05-04 21:30 41.23982 -95.83619 2202 ft 121 kts 324°
2026-05-04 21:30 41.24674 -95.84275 2073 ft 126 kts 324°
2026-05-04 21:30 41.25408 -95.84967 1913 ft 131 kts 324°
2026-05-04 21:31 41.26942 -95.86413 1560 ft 135 kts 323°
2026-05-04 21:31 41.27718 -95.87138 1373 ft 136 kts 327°
2026-05-04 21:31 41.28471 -95.87846 1184 ft 129 kts 323°
2026-05-04 21:32 41.29175 -95.88515 1032 ft 117 kts 325°
2026-05-04 21:32 41.29774 -95.89093 987 ft 86 kts 323°
2026-05-04 21:32 41.30129 -95.89420 984 ft 34 kts 326°
2026-05-04 21:32 41.30243 -95.89529 984 ft 8 kts 324°
2026-05-04 21:33 41.30265 -95.89549 984 ft 3 kts 324°
2026-05-04 21:33 41.30349 -95.89606 985 ft 9 kts 338°
2026-05-04 21:33 41.30328 -95.89622 984 ft 11 kts 136°
2026-05-04 21:33 41.30249 -95.89602 983 ft 12 kts 183°
2026-05-04 21:34 41.30240 -95.89602 983 ft 0 kts 180°
2026-05-04 21:34 41.30215 -95.89602 983 ft 7 kts 179°
2026-05-04 21:34 41.30150 -95.89601 983 ft 10 kts 179°
2026-05-04 21:34 41.30082 -95.89601 983 ft 9 kts 182°
2026-05-04 21:35 41.30027 -95.89606 983 ft 6 kts 200°
2026-05-04 21:35 41.29999 -95.89645 983 ft 6 kts 251°
2026-05-04 21:35 41.30007 -95.89695 983 ft 4 kts 302°
2026-05-04 21:35 41.30021 -95.89719 983 ft 2 kts 308°
2026-05-04 21:36 41.30042 -95.89751 983 ft 6 kts 308°
2026-05-04 21:36 41.30064 -95.89793 983 ft 3 kts 304°
2026-05-04 21:36 41.30067 -95.89798 983 ft 0 kts 304°